IRIDIUM 21 [+]

Last updated on Thu May 10 2018 00:19:50 GMT+0000 (Coordinated Universal Time)

1 25778U 99032B 18129.57884734 .00023108 -12997-5 47263-4 0 9993 2 25778 86.3980 87.2333 0244070 167.6868 193.0519 15.63474306994931

Satellite not in orbit